Time,TemperatureF,DewpointF,PressureIn,WindDirection,WindDirectionDegrees,WindSpeedMPH,WindSpeedGustMPH,Humidity,HourlyPrecipIn,Conditions,Clouds,dailyrainin,SoftwareType,DateUTC
2013-01-17 00:00:00,34.8,26.7,29.88,SW,228,5.0,5.0,72,0.00,,,0.00,Wunderground v.1.15,2013-01-17 05:00:00,
2013-01-17 00:01:00,34.9,26.8,29.88,NW,307,5.0,5.0,72,0.00,,,0.00,Wunderground v.1.15,2013-01-17 05:01:00,
2013-01-17 00:04:00,34.9,26.8,29.88,South,177,4.0,5.0,72,0.00,,,0.00,Wunderground v.1.15,2013-01-17 05:04:00,
2013-01-17 00:07:00,34.9,27.1,29.88,SSW,211,4.0,5.0,73,0.00,,,0.00,Wunderground v.1.15,2013-01-17 05:07:00,
2013-01-17 00:14:00,34.9,27.8,29.89,West,271,3.0,8.0,75,0.00,,,0.00,Wunderground v.1.15,2013-01-17 05:14:00,
2013-01-17 00:19:00,34.9,27.5,29.89,SW,235,4.0,8.0,74,0.00,,,0.00,Wunderground v.1.15,2013-01-17 05:19:00,
2013-01-17 00:24:00,34.9,27.5,29.89,SSW,197,5.0,5.0,74,0.00,,,0.00,Wunderground v.1.15,2013-01-17 05:24:00,
2013-01-17 00:30:00,34.8,27.7,29.89,WSW,245,5.0,5.0,75,0.00,,,0.00,Wunderground v.1.15,2013-01-17 05:30:00,
2013-01-17 00:35:00,34.8,27.7,29.89,SSW,197,5.0,6.0,75,0.00,,,0.00,Wunderground v.1.15,2013-01-17 05:35:00,
2013-01-17 00:41:00,34.7,28.2,29.89,WSW,252,5.0,5.0,77,0.00,,,0.00,Wunderground v.1.15,2013-01-17 05:41:00,
2013-01-17 00:46:00,34.5,28.7,29.89,SSW,204,4.0,5.0,79,0.00,,,0.00,Wunderground v.1.15,2013-01-17 05:46:00,
2013-01-17 00:51:00,34.3,29.1,29.90,WNW,302,4.0,4.0,81,0.00,,,0.00,Wunderground v.1.15,2013-01-17 05:51:00,
2013-01-17 00:56:00,34.1,28.9,29.90,ENE,76,5.0,9.0,81,0.00,,,0.00,Wunderground v.1.15,2013-01-17 05:56:00,
2013-01-17 01:01:00,33.9,28.4,29.90,WSW,238,4.0,9.0,80,0.00,,,0.00,Wunderground v.1.15,2013-01-17 06:01:00,
2013-01-17 01:07:00,33.9,28.4,29.90,WSW,250,4.0,9.0,80,0.00,,,0.00,Wunderground v.1.15,2013-01-17 06:07:00,
2013-01-17 01:12:00,33.7,28.5,29.91,SSW,205,4.0,5.0,81,0.00,,,0.00,Wunderground v.1.15,2013-01-17 06:12:00,
2013-01-17 01:17:00,33.6,29.0,29.91,South,189,3.0,7.0,83,0.00,,,0.00,Wunderground v.1.15,2013-01-17 06:17:00,
2013-01-17 01:24:00,33.4,29.1,29.92,SW,224,3.0,4.0,84,0.00,,,0.00,Wunderground v.1.15,2013-01-17 06:24:00,
2013-01-17 01:29:00,33.3,29.3,29.92,WSW,248,3.0,6.0,85,0.00,,,0.00,Wunderground v.1.15,2013-01-17 06:29:00,
2013-01-17 01:34:00,33.3,29.3,29.92,SW,232,4.0,7.0,85,0.00,,,0.00,Wunderground v.1.15,2013-01-17 06:34:00,
2013-01-17 01:39:00,33.3,29.3,29.92,WSW,253,3.0,7.0,85,0.00,,,0.00,Wunderground v.1.15,2013-01-17 06:39:00,
2013-01-17 01:45:00,33.4,29.4,29.92,WSW,252,2.0,9.0,85,0.00,,,0.00,Wunderground v.1.15,2013-01-17 06:45:00,
2013-01-17 01:51:00,33.5,29.2,29.92,SE,145,3.0,5.0,84,0.00,,,0.00,Wunderground v.1.15,2013-01-17 06:51:00,
2013-01-17 01:56:00,33.6,29.0,29.93,SW,231,3.0,5.0,83,0.00,,,0.00,Wunderground v.1.15,2013-01-17 06:56:00,
2013-01-17 02:02:00,33.7,29.1,29.93,SSW,193,3.0,3.0,83,0.00,,,0.00,Wunderground v.1.15,2013-01-17 07:02:00,
2013-01-17 02:07:00,33.9,29.0,29.93,WSW,245,2.0,4.0,82,0.00,,,0.00,Wunderground v.1.15,2013-01-17 07:07:00,
2013-01-17 02:14:00,34.2,28.7,29.93,SSW,211,4.0,12.0,80,0.00,,,0.00,Wunderground v.1.15,2013-01-17 07:14:00,
2013-01-17 02:19:00,34.3,28.5,29.93,NW,307,3.0,12.0,79,0.00,,,0.00,Wunderground v.1.15,2013-01-17 07:19:00,
2013-01-17 02:24:00,34.5,28.0,29.93,South,170,4.0,10.0,77,0.00,,,0.00,Wunderground v.1.15,2013-01-17 07:24:00,
2013-01-17 02:29:00,34.6,28.1,29.93,SW,218,4.0,10.0,77,0.00,,,0.00,Wunderground v.1.15,2013-01-17 07:29:00,
2013-01-17 02:35:00,34.7,27.9,29.94,WSW,245,4.0,7.0,76,0.00,,,0.00,Wunderground v.1.15,2013-01-17 07:35:00,
2013-01-17 02:41:00,34.7,27.9,29.94,WSW,248,4.0,4.0,76,0.00,,,0.00,Wunderground v.1.15,2013-01-17 07:41:00,
2013-01-17 02:47:00,34.8,27.7,29.94,South,184,4.0,11.0,75,0.00,,,0.00,Wunderground v.1.15,2013-01-17 07:47:00,
2013-01-17 02:54:00,34.8,27.7,29.94,SSW,201,4.0,4.0,75,0.00,,,0.00,Wunderground v.1.15,2013-01-17 07:54:00,
2013-01-17 02:59:00,34.8,27.7,29.95,SSW,210,5.0,5.0,75,0.00,,,0.00,Wunderground v.1.15,2013-01-17 07:59:00,
2013-01-17 03:05:00,34.7,27.6,29.95,West,259,4.0,5.0,75,0.00,,,0.00,Wunderground v.1.15,2013-01-17 08:05:00,
2013-01-17 03:10:00,34.7,27.3,29.95,WSW,252,3.0,3.0,74,0.00,,,0.00,Wunderground v.1.15,2013-01-17 08:10:00,
2013-01-17 03:16:00,34.6,27.2,29.95,NNW,335,3.0,9.0,74,0.00,,,0.00,Wunderground v.1.15,2013-01-17 08:16:00,
2013-01-17 03:21:00,34.5,27.1,29.96,WSW,238,4.0,6.0,74,0.00,,,0.00,Wunderground v.1.15,2013-01-17 08:21:00,
2013-01-17 03:26:00,34.5,27.4,29.96,West,260,4.0,7.0,75,0.00,,,0.00,Wunderground v.1.15,2013-01-17 08:26:00,
2013-01-17 03:32:00,34.4,27.3,29.96,West,263,3.0,4.0,75,0.00,,,0.00,Wunderground v.1.15,2013-01-17 08:32:00,
2013-01-17 03:39:00,34.4,27.3,29.96,SW,218,3.0,8.0,75,0.00,,,0.00,Wunderground v.1.15,2013-01-17 08:39:00,
2013-01-17 03:44:00,34.4,27.3,29.96,West,278,4.0,4.0,75,0.00,,,0.00,Wunderground v.1.15,2013-01-17 08:44:00,
2013-01-17 03:50:00,34.4,27.3,29.96,West,278,4.0,4.0,75,0.00,,,0.00,Wunderground v.1.15,2013-01-17 08:50:00,
2013-01-17 03:55:00,34.3,27.5,29.96,NW,312,4.0,4.0,76,0.00,,,0.00,Wunderground v.1.15,2013-01-17 08:55:00,
2013-01-17 04:00:00,34.3,27.5,29.96,West,260,3.0,7.0,76,0.00,,,0.00,Wunderground v.1.15,2013-01-17 09:00:00,
2013-01-17 04:06:00,34.2,27.4,29.96,West,267,3.0,7.0,76,0.00,,,0.00,Wunderground v.1.15,2013-01-17 09:06:00,
2013-01-17 04:12:00,34.1,27.3,29.96,SW,218,2.0,4.0,76,0.00,,,0.00,Wunderground v.1.15,2013-01-17 09:12:00,
2013-01-17 04:17:00,34.1,27.3,29.97,WNW,293,2.0,7.0,76,0.00,,,0.00,Wunderground v.1.15,2013-01-17 09:17:00,
2013-01-17 04:23:00,34.1,27.6,29.97,West,263,3.0,5.0,77,0.00,,,0.00,Wunderground v.1.15,2013-01-17 09:23:00,
2013-01-17 04:29:00,34.1,27.6,29.97,NNW,338,2.0,5.0,77,0.00,,,0.00,Wunderground v.1.15,2013-01-17 09:29:00,
2013-01-17 04:34:00,34.1,27.6,29.97,NE,35,2.0,5.0,77,0.00,,,0.00,Wunderground v.1.15,2013-01-17 09:34:00,
2013-01-17 04:39:00,34.1,27.6,29.98,WSW,248,3.0,7.0,77,0.00,,,0.00,Wunderground v.1.15,2013-01-17 09:39:00,
2013-01-17 04:45:00,34.0,27.9,29.98,WSW,256,3.0,6.0,78,0.00,,,0.00,Wunderground v.1.15,2013-01-17 09:45:00,
2013-01-17 04:50:00,34.0,27.9,29.98,SW,224,2.0,2.0,78,0.00,,,0.00,Wunderground v.1.15,2013-01-17 09:50:00,
2013-01-17 04:55:00,34.0,27.9,29.98,WSW,252,2.0,2.0,78,0.00,,,0.00,Wunderground v.1.15,2013-01-17 09:55:00,
2013-01-17 05:00:00,33.9,27.8,29.98,WNW,285,2.0,2.0,78,0.00,,,0.00,Wunderground v.1.15,2013-01-17 10:00:00,
2013-01-17 05:06:00,34.0,27.9,29.98,SE,137,3.0,5.0,78,0.00,,,0.00,Wunderground v.1.15,2013-01-17 10:06:00,
2013-01-17 05:12:00,34.0,27.9,29.98,West,276,3.0,3.0,78,0.00,,,0.00,Wunderground v.1.15,2013-01-17 10:12:00,
2013-01-17 05:17:00,34.0,27.9,29.99,SW,224,2.0,5.0,78,0.00,,,0.00,Wunderground v.1.15,2013-01-17 10:17:00,
2013-01-17 05:24:00,33.9,28.1,29.99,WNW,284,2.0,2.0,79,0.00,,,0.00,Wunderground v.1.15,2013-01-17 10:24:00,
2013-01-17 05:29:00,33.9,28.1,29.99,West,271,2.0,4.0,79,0.00,,,0.00,Wunderground v.1.15,2013-01-17 10:29:00,
2013-01-17 05:34:00,33.9,27.8,29.99,SSW,198,2.0,4.0,78,0.00,,,0.00,Wunderground v.1.15,2013-01-17 10:34:00,
2013-01-17 05:40:00,33.8,27.7,29.99,WSW,250,3.0,3.0,78,0.00,,,0.00,Wunderground v.1.15,2013-01-17 10:40:00,
2013-01-17 05:45:00,33.9,28.1,29.99,West,268,3.0,3.0,79,0.00,,,0.00,Wunderground v.1.15,2013-01-17 10:45:00,
2013-01-17 05:51:00,33.9,27.8,30.00,West,263,3.0,4.0,78,0.00,,,0.00,Wunderground v.1.15,2013-01-17 10:51:00,
2013-01-17 05:56:00,33.9,27.8,30.00,West,266,3.0,6.0,78,0.00,,,0.00,Wunderground v.1.15,2013-01-17 10:56:00,
2013-01-17 06:02:00,33.8,27.4,30.00,West,263,3.0,7.0,77,0.00,,,0.00,Wunderground v.1.15,2013-01-17 11:02:00,
2013-01-17 06:09:00,33.7,26.9,30.01,NW,312,3.0,7.0,76,0.00,,,0.00,Wunderground v.1.15,2013-01-17 11:09:00,
2013-01-17 06:14:00,33.0,25.6,30.01,North,6,3.0,3.0,74,0.00,,,0.00,Wunderground v.1.15,2013-01-17 11:14:00,
2013-01-17 06:19:00,32.4,25.0,30.01,NW,310,3.0,6.0,74,0.00,,,0.00,Wunderground v.1.15,2013-01-17 11:19:00,
2013-01-17 06:25:00,32.0,24.6,30.02,WNW,295,3.0,8.0,74,0.00,,,0.00,Wunderground v.1.15,2013-01-17 11:25:00,
2013-01-17 06:30:00,31.9,24.6,30.02,WSW,249,4.0,4.0,74,0.00,,,0.00,Wunderground v.1.15,2013-01-17 11:30:00,
2013-01-17 06:36:00,31.7,24.7,30.03,NW,316,2.0,4.0,75,0.00,,,0.00,Wunderground v.1.15,2013-01-17 11:36:00,
2013-01-17 06:41:00,31.7,25.0,30.04,West,267,2.0,4.0,76,0.00,,,0.00,Wunderground v.1.15,2013-01-17 11:41:00,
2013-01-17 06:46:00,31.4,25.0,30.04,NE,39,2.0,6.0,77,0.00,,,0.00,Wunderground v.1.15,2013-01-17 11:46:00,
2013-01-17 06:51:00,30.8,24.7,30.05,NW,324,3.0,3.0,78,0.00,,,0.00,Wunderground v.1.15,2013-01-17 11:51:00,
2013-01-17 06:57:00,30.3,24.6,30.05,NE,41,3.0,6.0,79,0.00,,,0.00,Wunderground v.1.15,2013-01-17 11:57:00,
2013-01-17 07:04:00,29.7,23.4,30.07,West,266,3.0,6.0,77,0.00,,,0.00,Wunderground v.1.15,2013-01-17 12:04:00,
2013-01-17 07:09:00,29.3,22.7,30.07,NW,314,3.0,6.0,76,0.00,,,0.00,Wunderground v.1.15,2013-01-17 12:09:00,
2013-01-17 07:15:00,29.0,22.4,30.07,NW,305,3.0,5.0,76,0.00,,,0.00,Wunderground v.1.15,2013-01-17 12:15:00,
2013-01-17 07:20:00,28.5,21.3,30.08,North,10,3.0,7.0,74,0.00,,,0.00,Wunderground v.1.15,2013-01-17 12:20:00,
2013-01-17 07:25:00,28.1,20.9,30.08,NW,321,4.0,8.0,74,0.00,,,0.00,Wunderground v.1.15,2013-01-17 12:25:00,
2013-01-17 07:31:00,27.7,20.5,30.09,NNE,13,4.0,4.0,74,0.00,,,0.00,Wunderground v.1.15,2013-01-17 12:31:00,
2013-01-17 07:37:00,27.4,19.9,30.09,NNW,328,4.0,6.0,73,0.00,,,0.00,Wunderground v.1.15,2013-01-17 12:37:00,
2013-01-17 07:42:00,27.2,19.7,30.09,WNW,297,4.0,4.0,73,0.00,,,0.00,Wunderground v.1.15,2013-01-17 12:42:00,
2013-01-17 07:49:00,27.0,19.5,30.09,NW,311,3.0,7.0,73,0.00,,,0.00,Wunderground v.1.15,2013-01-17 12:49:00,
2013-01-17 07:54:00,27.0,19.8,30.10,WNW,286,4.0,6.0,74,0.00,,,0.00,Wunderground v.1.15,2013-01-17 12:54:00,
2013-01-17 07:59:00,26.8,19.3,30.10,WNW,300,4.0,9.0,73,0.00,,,0.00,Wunderground v.1.15,2013-01-17 12:59:00,
2013-01-17 08:04:00,26.5,18.7,30.10,NW,307,5.0,8.0,72,0.00,,,0.00,Wunderground v.1.15,2013-01-17 13:04:00,
2013-01-17 08:10:00,26.1,18.3,30.11,WNW,285,5.0,5.0,72,0.00,,,0.00,Wunderground v.1.15,2013-01-17 13:10:00,
2013-01-17 08:15:00,26.0,18.5,30.11,NW,312,3.0,5.0,73,0.00,,,0.00,Wunderground v.1.15,2013-01-17 13:15:00,
2013-01-17 08:21:00,25.9,18.4,30.11,NNW,333,3.0,3.0,73,0.00,,,0.00,Wunderground v.1.15,2013-01-17 13:21:00,
2013-01-17 08:26:00,25.8,18.3,30.12,NW,308,4.0,6.0,73,0.00,,,0.00,Wunderground v.1.15,2013-01-17 13:26:00,
2013-01-17 08:32:00,25.6,18.1,30.13,NW,325,4.0,6.0,73,0.00,,,0.00,Wunderground v.1.15,2013-01-17 13:32:00,
2013-01-17 08:37:00,25.5,18.0,30.13,NW,325,4.0,7.0,73,0.00,,,0.00,Wunderground v.1.15,2013-01-17 13:37:00,
2013-01-17 08:44:00,25.5,18.0,30.13,North,355,4.0,8.0,73,0.00,,,0.00,Wunderground v.1.15,2013-01-17 13:44:00,
2013-01-17 08:49:00,25.6,18.1,30.13,NNE,20,3.0,8.0,73,0.00,,,0.00,Wunderground v.1.15,2013-01-17 13:49:00,
2013-01-17 08:54:00,25.5,18.0,30.13,North,9,3.0,11.0,73,0.00,,,0.00,Wunderground v.1.15,2013-01-17 13:54:00,
2013-01-17 08:59:00,25.5,18.4,30.13,NNW,347,3.0,11.0,74,0.00,,,0.00,Wunderground v.1.15,2013-01-17 13:59:00,
2013-01-17 09:05:00,25.6,18.5,30.13,NNW,333,2.0,5.0,74,0.00,,,0.00,Wunderground v.1.15,2013-01-17 14:05:00,
2013-01-17 09:10:00,25.6,18.5,30.14,NW,326,2.0,2.0,74,0.00,,,0.00,Wunderground v.1.15,2013-01-17 14:10:00,
2013-01-17 09:15:00,25.7,18.6,30.14,NNE,16,3.0,5.0,74,0.00,,,0.00,Wunderground v.1.15,2013-01-17 14:15:00,
2013-01-17 09:20:00,25.7,18.9,30.15,North,8,3.0,3.0,75,0.00,,,0.00,Wunderground v.1.15,2013-01-17 14:20:00,
2013-01-17 09:26:00,25.9,19.1,30.15,NNW,342,2.0,7.0,75,0.00,,,0.00,Wunderground v.1.15,2013-01-17 14:26:00,
2013-01-17 09:31:00,25.9,19.4,30.15,NNE,32,2.0,5.0,76,0.00,,,0.00,Wunderground v.1.15,2013-01-17 14:31:00,
2013-01-17 09:36:00,25.8,19.0,30.16,North,9,3.0,5.0,75,0.00,,,0.00,Wunderground v.1.15,2013-01-17 14:36:00,
2013-01-17 09:41:00,25.7,18.9,30.16,NNE,15,3.0,3.0,75,0.00,,,0.00,Wunderground v.1.15,2013-01-17 14:41:00,
2013-01-17 09:46:00,25.6,18.8,30.16,NE,54,3.0,4.0,75,0.00,,,0.00,Wunderground v.1.15,2013-01-17 14:46:00,
2013-01-17 09:52:00,25.5,18.4,30.17,NNW,347,2.0,4.0,74,0.00,,,0.00,Wunderground v.1.15,2013-01-17 14:52:00,
2013-01-17 09:58:00,25.3,18.2,30.17,North,1,3.0,4.0,74,0.00,,,0.00,Wunderground v.1.15,2013-01-17 14:58:00,
2013-01-17 10:04:00,25.1,17.7,30.17,NE,34,3.0,5.0,73,0.00,,,0.00,Wunderground v.1.15,2013-01-17 15:04:00,
2013-01-17 10:09:00,25.0,17.9,30.17,NNE,18,3.0,6.0,74,0.00,,,0.00,Wunderground v.1.15,2013-01-17 15:09:00,
2013-01-17 10:15:00,24.9,17.5,30.17,NNE,20,3.0,5.0,73,0.00,,,0.00,Wunderground v.1.15,2013-01-17 15:15:00,
2013-01-17 10:21:00,24.9,17.5,30.17,NE,47,3.0,5.0,73,0.00,,,0.00,Wunderground v.1.15,2013-01-17 15:21:00,
2013-01-17 10:27:00,24.7,17.3,30.18,NNE,22,3.0,6.0,73,0.00,,,0.00,Wunderground v.1.15,2013-01-17 15:27:00,
2013-01-17 10:34:00,24.5,17.1,30.18,North,6,3.0,5.0,73,0.00,,,0.00,Wunderground v.1.15,2013-01-17 15:34:00,
2013-01-17 10:39:00,24.4,17.0,30.18,NNE,32,3.0,5.0,73,0.00,,,0.00,Wunderground v.1.15,2013-01-17 15:39:00,
2013-01-17 10:45:00,24.4,16.7,30.18,NNE,12,2.0,4.0,72,0.00,,,0.00,Wunderground v.1.15,2013-01-17 15:45:00,
2013-01-17 10:51:00,24.4,17.0,30.19,NNE,23,2.0,4.0,73,0.00,,,0.00,Wunderground v.1.15,2013-01-17 15:51:00,
2013-01-17 10:56:00,24.4,17.0,30.18,NNW,338,2.0,4.0,73,0.00,,,0.00,Wunderground v.1.15,2013-01-17 15:56:00,
2013-01-17 11:01:00,24.3,16.9,30.18,NNW,345,2.0,3.0,73,0.00,,,0.00,Wunderground v.1.15,2013-01-17 16:01:00,
2013-01-17 11:07:00,24.3,16.9,30.18,NE,46,2.0,4.0,73,0.00,,,0.00,Wunderground v.1.15,2013-01-17 16:07:00,
2013-01-17 11:14:00,24.3,16.9,30.18,NE,37,2.0,4.0,73,0.00,,,0.00,Wunderground v.1.15,2013-01-17 16:14:00,
2013-01-17 11:19:00,24.2,16.8,30.18,NNE,18,2.0,4.0,73,0.00,,,0.00,Wunderground v.1.15,2013-01-17 16:19:00,
2013-01-17 11:24:00,24.2,17.1,30.18,NNW,340,2.0,6.0,74,0.00,,,0.00,Wunderground v.1.15,2013-01-17 16:24:00,
2013-01-17 11:29:00,24.1,17.0,30.19,NNE,23,2.0,6.0,74,0.00,,,0.00,Wunderground v.1.15,2013-01-17 16:29:00,
2013-01-17 11:35:00,24.0,16.9,30.19,NW,324,2.0,2.0,74,0.00,,,0.00,Wunderground v.1.15,2013-01-17 16:35:00,
2013-01-17 11:41:00,23.8,16.7,30.18,ENE,75,2.0,2.0,74,0.00,,,0.00,Wunderground v.1.15,2013-01-17 16:41:00,
2013-01-17 11:46:00,23.7,16.6,30.18,North,352,2.0,4.0,74,0.00,,,0.00,Wunderground v.1.15,2013-01-17 16:46:00,
2013-01-17 11:51:00,23.7,16.9,30.18,NNE,18,2.0,3.0,75,0.00,,,0.00,Wunderground v.1.15,2013-01-17 16:51:00,
2013-01-17 11:57:00,23.6,16.8,30.18,NNE,23,2.0,3.0,75,0.00,,,0.00,Wunderground v.1.15,2013-01-17 16:57:00,
2013-01-17 12:04:00,23.7,17.5,30.17,NE,48,1.0,2.0,77,0.00,,,0.00,Wunderground v.1.15,2013-01-17 17:04:00,
2013-01-17 12:09:00,23.7,17.5,30.18,NNW,336,1.0,3.0,77,0.00,,,0.00,Wunderground v.1.15,2013-01-17 17:09:00,
2013-01-17 12:14:00,23.8,17.9,30.18,NNW,336,1.0,6.0,78,0.00,,,0.00,Wunderground v.1.15,2013-01-17 17:14:00,
2013-01-17 12:19:00,23.4,17.6,30.18,ENE,72,2.0,6.0,78,0.00,,,0.00,Wunderground v.1.15,2013-01-17 17:19:00,
2013-01-17 12:25:00,23.4,17.8,30.17,North,9,2.0,5.0,79,0.00,,,0.00,Wunderground v.1.15,2013-01-17 17:25:00,
2013-01-17 12:30:00,22.9,17.1,30.17,NW,316,3.0,3.0,78,0.00,,,0.00,Wunderground v.1.15,2013-01-17 17:30:00,
2013-01-17 12:35:00,22.8,17.3,30.17,ENE,61,3.0,5.0,79,0.00,,,0.00,Wunderground v.1.15,2013-01-17 17:35:00,
2013-01-17 12:40:00,22.8,17.3,30.17,NNE,27,2.0,2.0,79,0.00,,,0.00,Wunderground v.1.15,2013-01-17 17:40:00,
2013-01-17 12:46:00,22.8,17.3,30.17,NW,325,2.0,2.0,79,0.00,,,0.00,Wunderground v.1.15,2013-01-17 17:46:00,
2013-01-17 12:51:00,22.9,17.7,30.16,East,80,2.0,2.0,80,0.00,,,0.00,Wunderground v.1.15,2013-01-17 17:51:00,
2013-01-17 12:56:00,22.8,17.0,30.16,NNE,22,3.0,6.0,78,0.00,,,0.00,Wunderground v.1.15,2013-01-17 17:56:00,
2013-01-17 13:01:00,22.7,16.9,30.16,NE,56,3.0,3.0,78,0.00,,,0.00,Wunderground v.1.15,2013-01-17 18:01:00,
2013-01-17 13:07:00,23.0,17.5,30.16,ESE,118,2.0,3.0,79,0.00,,,0.00,Wunderground v.1.15,2013-01-17 18:07:00,
2013-01-17 13:13:00,23.0,16.9,30.16,ENE,65,2.0,4.0,77,0.00,,,0.00,Wunderground v.1.15,2013-01-17 18:13:00,
2013-01-17 13:19:00,22.8,16.7,30.16,NE,41,2.0,4.0,77,0.00,,,0.00,Wunderground v.1.15,2013-01-17 18:19:00,
2013-01-17 13:24:00,22.8,17.0,30.16,NE,48,1.0,2.0,78,0.00,,,0.00,Wunderground v.1.15,2013-01-17 18:24:00,
2013-01-17 13:29:00,22.9,16.8,30.16,ENE,64,1.0,3.0,77,0.00,,,0.00,Wunderground v.1.15,2013-01-17 18:29:00,
2013-01-17 13:34:00,22.9,16.8,30.16,East,85,2.0,3.0,77,0.00,,,0.00,Wunderground v.1.15,2013-01-17 18:34:00,
2013-01-17 13:39:00,22.8,16.4,30.16,East,87,2.0,4.0,76,0.00,,,0.00,Wunderground v.1.15,2013-01-17 18:39:00,
2013-01-17 13:45:00,22.7,16.6,30.16,NNE,18,2.0,2.0,77,0.00,,,0.00,Wunderground v.1.15,2013-01-17 18:45:00,
2013-01-17 13:50:00,22.7,16.3,30.15,East,101,2.0,2.0,76,0.00,,,0.00,Wunderground v.1.15,2013-01-17 18:50:00,
2013-01-17 13:56:00,22.6,16.2,30.15,NNE,30,2.0,4.0,76,0.00,,,0.00,Wunderground v.1.15,2013-01-17 18:56:00,
2013-01-17 14:02:00,22.6,15.9,30.15,NNE,23,2.0,4.0,75,0.00,,,0.00,Wunderground v.1.15,2013-01-17 19:02:00,
2013-01-17 14:09:00,22.6,15.9,30.14,NE,34,3.0,6.0,75,0.00,,,0.00,Wunderground v.1.15,2013-01-17 19:09:00,
2013-01-17 14:14:00,22.6,15.9,30.14,ENE,74,3.0,6.0,75,0.00,,,0.00,Wunderground v.1.15,2013-01-17 19:14:00,
2013-01-17 14:19:00,22.6,15.6,30.15,NNE,22,2.0,6.0,74,0.00,,,0.00,Wunderground v.1.15,2013-01-17 19:19:00,
2013-01-17 14:24:00,22.5,15.8,30.15,NNE,17,2.0,5.0,75,0.00,,,0.00,Wunderground v.1.15,2013-01-17 19:24:00,
2013-01-17 14:30:00,22.6,15.9,30.15,NNE,26,2.0,2.0,75,0.00,,,0.00,Wunderground v.1.15,2013-01-17 19:30:00,
2013-01-17 14:36:00,22.7,16.3,30.15,ESE,104,2.0,6.0,76,0.00,,,0.00,Wunderground v.1.15,2013-01-17 19:36:00,
2013-01-17 14:42:00,22.9,16.8,30.15,NNW,330,1.0,2.0,77,0.00,,,0.00,Wunderground v.1.15,2013-01-17 19:42:00,
2013-01-17 14:49:00,22.8,16.1,30.15,North,355,2.0,5.0,75,0.00,,,0.00,Wunderground v.1.15,2013-01-17 19:49:00,
2013-01-17 14:54:00,22.4,15.7,30.15,NNE,30,3.0,4.0,75,0.00,,,0.00,Wunderground v.1.15,2013-01-17 19:54:00,
2013-01-17 14:59:00,22.3,15.9,30.15,NE,47,2.0,8.0,76,0.00,,,0.00,Wunderground v.1.15,2013-01-17 19:59:00,
2013-01-17 15:05:00,22.2,15.8,30.15,East,83,2.0,4.0,76,0.00,,,0.00,Wunderground v.1.15,2013-01-17 20:05:00,
2013-01-17 15:10:00,22.2,15.8,30.14,NNE,20,2.0,5.0,76,0.00,,,0.00,Wunderground v.1.15,2013-01-17 20:10:00,
2013-01-17 15:15:00,22.1,15.1,30.14,NNE,23,3.0,5.0,74,0.00,,,0.00,Wunderground v.1.15,2013-01-17 20:15:00,
2013-01-17 15:21:00,22.1,15.4,30.14,NNE,29,3.0,6.0,75,0.00,,,0.00,Wunderground v.1.15,2013-01-17 20:21:00,
2013-01-17 15:27:00,21.9,14.9,30.14,NNW,335,3.0,6.0,74,0.00,,,0.00,Wunderground v.1.15,2013-01-17 20:27:00,
2013-01-17 15:34:00,21.8,14.8,30.15,NE,35,3.0,7.0,74,0.00,,,0.00,Wunderground v.1.15,2013-01-17 20:34:00,
2013-01-17 15:39:00,21.6,14.6,30.14,ENE,75,3.0,8.0,74,0.00,,,0.00,Wunderground v.1.15,2013-01-17 20:39:00,
2013-01-17 15:44:00,21.4,14.4,30.15,NE,40,3.0,4.0,74,0.00,,,0.00,Wunderground v.1.15,2013-01-17 20:44:00,
2013-01-17 15:49:00,21.4,14.4,30.15,NE,56,3.0,5.0,74,0.00,,,0.00,Wunderground v.1.15,2013-01-17 20:49:00,
2013-01-17 15:55:00,21.2,14.2,30.15,NNE,29,3.0,4.0,74,0.00,,,0.00,Wunderground v.1.15,2013-01-17 20:55:00,
2013-01-17 16:00:00,21.1,14.1,30.15,NNE,15,3.0,4.0,74,0.00,,,0.00,Wunderground v.1.15,2013-01-17 21:00:00,
2013-01-17 16:06:00,21.2,14.5,30.15,NNE,22,3.0,4.0,75,0.00,,,0.00,Wunderground v.1.15,2013-01-17 21:06:00,
2013-01-17 16:12:00,21.2,14.2,30.15,North,6,1.0,2.0,74,0.00,,,0.00,Wunderground v.1.15,2013-01-17 21:12:00,
2013-01-17 16:19:00,21.2,14.2,30.15,ESE,104,1.0,4.0,74,0.00,,,0.00,Wunderground v.1.15,2013-01-17 21:19:00,
2013-01-17 16:24:00,21.1,14.1,30.16,East,101,2.0,5.0,74,0.00,,,0.00,Wunderground v.1.15,2013-01-17 21:24:00,
2013-01-17 16:29:00,21.0,14.3,30.16,ENE,60,2.0,5.0,75,0.00,,,0.00,Wunderground v.1.15,2013-01-17 21:29:00,
2013-01-17 16:34:00,20.9,14.2,30.17,NE,46,1.0,4.0,75,0.00,,,0.00,Wunderground v.1.15,2013-01-17 21:34:00,
2013-01-17 16:40:00,20.9,14.5,30.17,NE,39,2.0,2.0,76,0.00,,,0.00,Wunderground v.1.15,2013-01-17 21:40:00,
2013-01-17 16:46:00,20.9,14.8,30.17,NE,40,2.0,6.0,77,0.00,,,0.00,Wunderground v.1.15,2013-01-17 21:46:00,
2013-01-17 16:52:00,20.8,14.7,30.17,East,80,2.0,3.0,77,0.00,,,0.00,Wunderground v.1.15,2013-01-17 21:52:00,
2013-01-17 16:59:00,20.6,14.8,30.16,NW,321,2.0,5.0,78,0.00,,,0.00,Wunderground v.1.15,2013-01-17 21:59:00,
2013-01-17 17:04:00,20.6,14.8,30.17,ENE,67,1.0,2.0,78,0.00,,,0.00,Wunderground v.1.15,2013-01-17 22:04:00,
2013-01-17 17:09:00,20.6,14.8,30.17,ENE,59,1.0,3.0,78,0.00,,,0.00,Wunderground v.1.15,2013-01-17 22:09:00,
2013-01-17 17:14:00,20.5,14.7,30.17,ENE,64,2.0,2.0,78,0.00,,,0.00,Wunderground v.1.15,2013-01-17 22:14:00,
2013-01-17 17:19:00,20.4,14.6,30.18,NE,42,1.0,4.0,78,0.00,,,0.00,Wunderground v.1.15,2013-01-17 22:19:00,
2013-01-17 17:24:00,20.3,14.5,30.18,ENE,66,2.0,3.0,78,0.00,,,0.00,Wunderground v.1.15,2013-01-17 22:24:00,
2013-01-17 17:30:00,20.3,14.5,30.18,NNE,30,1.0,2.0,78,0.00,,,0.00,Wunderground v.1.15,2013-01-17 22:30:00,
2013-01-17 17:35:00,20.4,14.6,30.17,ESE,103,1.0,2.0,78,0.00,,,0.00,Wunderground v.1.15,2013-01-17 22:35:00,
2013-01-17 17:40:00,20.4,14.6,30.17,ESE,103,1.0,1.0,78,0.00,,,0.00,Wunderground v.1.15,2013-01-17 22:40:00,
2013-01-17 17:46:00,20.4,14.6,30.16,East,84,1.0,4.0,78,0.00,,,0.00,Wunderground v.1.15,2013-01-17 22:46:00,
2013-01-17 17:51:00,20.3,14.5,30.17,ENE,75,2.0,3.0,78,0.00,,,0.00,Wunderground v.1.15,2013-01-17 22:51:00,
2013-01-17 17:57:00,20.4,14.9,30.15,East,91,2.0,5.0,79,0.00,,,0.00,Wunderground v.1.15,2013-01-17 22:57:00,
2013-01-17 18:04:00,20.4,14.9,30.15,ESE,103,3.0,4.0,79,0.00,,,0.00,Wunderground v.1.15,2013-01-17 23:04:00,
2013-01-17 18:09:00,20.5,15.0,30.15,ENE,72,3.0,7.0,79,0.00,,,0.00,Wunderground v.1.15,2013-01-17 23:09:00,
2013-01-17 18:15:00,20.5,14.7,30.15,ESE,110,2.0,3.0,78,0.00,,,0.00,Wunderground v.1.15,2013-01-17 23:15:00,
2013-01-17 18:21:00,20.5,15.0,30.16,ESE,103,2.0,2.0,79,0.00,,,0.00,Wunderground v.1.15,2013-01-17 23:21:00,
2013-01-17 18:27:00,20.6,14.8,30.16,SE,141,2.0,5.0,78,0.00,,,0.00,Wunderground v.1.15,2013-01-17 23:27:00,
2013-01-17 18:34:00,20.6,14.8,30.17,ESE,110,2.0,4.0,78,0.00,,,0.00,Wunderground v.1.15,2013-01-17 23:34:00,
2013-01-17 18:39:00,20.6,14.8,30.17,East,97,1.0,4.0,78,0.00,,,0.00,Wunderground v.1.15,2013-01-17 23:39:00,
2013-01-17 18:45:00,20.7,14.9,30.17,East,98,1.0,4.0,78,0.00,,,0.00,Wunderground v.1.15,2013-01-17 23:45:00,
2013-01-17 18:51:00,20.7,14.9,30.17,NE,56,1.0,1.0,78,0.00,,,0.00,Wunderground v.1.15,2013-01-17 23:51:00,
2013-01-17 18:57:00,20.7,14.9,30.18,ESE,116,1.0,3.0,78,0.00,,,0.00,Wunderground v.1.15,2013-01-17 23:57:00,
2013-01-17 19:04:00,20.7,14.9,30.17,ENE,74,1.0,2.0,78,0.00,,,0.00,Wunderground v.1.15,2013-01-18 00:04:00,
2013-01-17 19:09:00,20.7,14.9,30.17,ENE,63,1.0,2.0,78,0.00,,,0.00,Wunderground v.1.15,2013-01-18 00:09:00,
2013-01-17 19:14:00,20.7,14.9,30.18,ESE,110,1.0,1.0,78,0.00,,,0.00,Wunderground v.1.15,2013-01-18 00:14:00,
2013-01-17 19:20:00,20.8,15.0,30.17,NE,49,1.0,3.0,78,0.00,,,0.00,Wunderground v.1.15,2013-01-18 00:20:00,
2013-01-17 19:26:00,20.7,14.9,30.18,NNE,22,2.0,3.0,78,0.00,,,0.00,Wunderground v.1.15,2013-01-18 00:26:00,
2013-01-17 19:31:00,20.5,14.7,30.18,North,1,2.0,4.0,78,0.00,,,0.00,Wunderground v.1.15,2013-01-18 00:31:00,
2013-01-17 19:36:00,20.5,14.7,30.18,NE,48,1.0,5.0,78,0.00,,,0.00,Wunderground v.1.15,2013-01-18 00:36:00,
2013-01-17 19:41:00,20.4,14.6,30.18,NNE,25,2.0,2.0,78,0.00,,,0.00,Wunderground v.1.15,2013-01-18 00:41:00,
2013-01-17 19:46:00,20.4,14.6,30.19,North,355,2.0,3.0,78,0.00,,,0.00,Wunderground v.1.15,2013-01-18 00:46:00,
2013-01-17 19:52:00,20.4,14.9,30.18,NNE,27,2.0,3.0,79,0.00,,,0.00,Wunderground v.1.15,2013-01-18 00:52:00,
2013-01-17 19:57:00,20.4,14.9,30.18,ENE,65,2.0,3.0,79,0.00,,,0.00,Wunderground v.1.15,2013-01-18 00:57:00,
2013-01-17 20:04:00,20.2,15.0,30.18,NNW,330,2.0,3.0,80,0.00,,,0.00,Wunderground v.1.15,2013-01-18 01:04:00,
2013-01-17 20:09:00,20.0,15.4,30.17,NE,52,2.0,3.0,82,0.00,,,0.00,Wunderground v.1.15,2013-01-18 01:09:00,
2013-01-17 20:15:00,19.7,15.4,30.18,NNE,32,2.0,4.0,83,0.00,,,0.00,Wunderground v.1.15,2013-01-18 01:15:00,
2013-01-17 20:21:00,19.6,15.6,30.17,NE,51,3.0,4.0,84,0.00,,,0.00,Wunderground v.1.15,2013-01-18 01:21:00,
2013-01-17 20:26:00,19.5,15.5,30.17,ESE,103,2.0,5.0,84,0.00,,,0.00,Wunderground v.1.15,2013-01-18 01:26:00,
2013-01-17 20:31:00,19.4,15.9,30.17,NNE,32,2.0,4.0,86,0.00,,,0.00,Wunderground v.1.15,2013-01-18 01:31:00,
2013-01-17 20:37:00,19.2,15.7,30.17,NE,41,2.0,5.0,86,0.00,,,0.00,Wunderground v.1.15,2013-01-18 01:37:00,
2013-01-17 20:44:00,19.1,15.6,30.16,NNE,27,2.0,3.0,86,0.00,,,0.00,Wunderground v.1.15,2013-01-18 01:44:00,
2013-01-17 20:49:00,19.0,15.5,30.17,NNE,28,2.0,5.0,86,0.00,,,0.00,Wunderground v.1.15,2013-01-18 01:49:00,
2013-01-17 20:55:00,18.9,15.4,30.17,NE,56,2.0,7.0,86,0.00,,,0.00,Wunderground v.1.15,2013-01-18 01:55:00,
2013-01-17 21:00:00,18.8,15.3,30.17,NW,316,3.0,3.0,86,0.00,,,0.00,Wunderground v.1.15,2013-01-18 02:00:00,
2013-01-17 21:05:00,18.7,15.2,30.17,ENE,58,3.0,4.0,86,0.00,,,0.00,Wunderground v.1.15,2013-01-18 02:05:00,
2013-01-17 21:11:00,18.6,14.8,30.18,ESE,114,3.0,3.0,85,0.00,,,0.00,Wunderground v.1.15,2013-01-18 02:11:00,
2013-01-17 21:16:00,18.5,14.7,30.18,ENE,71,3.0,5.0,85,0.00,,,0.00,Wunderground v.1.15,2013-01-18 02:16:00,
2013-01-17 21:22:00,18.3,14.5,30.18,NE,47,2.0,2.0,85,0.00,,,0.00,Wunderground v.1.15,2013-01-18 02:22:00,
2013-01-17 21:29:00,18.2,14.4,30.18,NNE,23,3.0,5.0,85,0.00,,,0.00,Wunderground v.1.15,2013-01-18 02:29:00,
2013-01-17 21:34:00,18.0,14.5,30.18,NNW,340,3.0,5.0,86,0.00,,,0.00,Wunderground v.1.15,2013-01-18 02:34:00,
2013-01-17 21:39:00,17.9,14.7,30.18,North,356,3.0,5.0,87,0.00,,,0.00,Wunderground v.1.15,2013-01-18 02:39:00,
2013-01-17 21:45:00,17.9,14.9,30.17,North,1,2.0,5.0,88,0.00,,,0.00,Wunderground v.1.15,2013-01-18 02:45:00,
2013-01-17 21:50:00,17.8,14.8,30.17,NE,46,2.0,3.0,88,0.00,,,0.00,Wunderground v.1.15,2013-01-18 02:50:00,
2013-01-17 21:55:00,17.7,15.0,30.18,NNE,20,2.0,6.0,89,0.00,,,0.00,Wunderground v.1.15,2013-01-18 02:55:00,
2013-01-17 22:00:00,17.6,14.9,30.18,NE,40,2.0,2.0,89,0.00,,,0.00,Wunderground v.1.15,2013-01-18 03:00:00,
2013-01-17 22:05:00,17.6,14.9,30.18,NE,34,2.0,4.0,89,0.00,,,0.00,Wunderground v.1.15,2013-01-18 03:05:00,
2013-01-17 22:11:00,17.6,14.9,30.18,North,355,2.0,4.0,89,0.00,,,0.00,Wunderground v.1.15,2013-01-18 03:11:00,
2013-01-17 22:16:00,17.6,15.2,30.18,NE,36,1.0,4.0,90,0.00,,,0.00,Wunderground v.1.15,2013-01-18 03:16:00,
2013-01-17 22:22:00,17.7,15.3,30.17,NE,35,1.0,3.0,90,0.00,,,0.00,Wunderground v.1.15,2013-01-18 03:22:00,
2013-01-17 22:27:00,17.7,15.3,30.18,NNE,23,2.0,3.0,90,0.00,,,0.00,Wunderground v.1.15,2013-01-18 03:27:00,
2013-01-17 22:32:00,17.6,14.9,30.18,ENE,71,2.0,4.0,89,0.00,,,0.00,Wunderground v.1.15,2013-01-18 03:32:00,
2013-01-17 22:39:00,17.3,14.4,30.18,North,8,4.0,7.0,88,0.00,,,0.00,Wunderground v.1.15,2013-01-18 03:39:00,
2013-01-17 22:44:00,17.1,14.2,30.19,NNE,33,4.0,4.0,88,0.00,,,0.00,Wunderground v.1.15,2013-01-18 03:44:00,
2013-01-17 22:49:00,17.0,14.1,30.18,NNE,27,3.0,4.0,88,0.00,,,0.00,Wunderground v.1.15,2013-01-18 03:49:00,
2013-01-17 22:55:00,16.9,14.0,30.19,North,354,2.0,3.0,88,0.00,,,0.00,Wunderground v.1.15,2013-01-18 03:55:00,
2013-01-17 23:01:00,16.8,13.9,30.18,NE,53,3.0,4.0,88,0.00,,,0.00,Wunderground v.1.15,2013-01-18 04:01:00,
2013-01-17 23:06:00,16.7,13.8,30.19,East,82,3.0,4.0,88,0.00,,,0.00,Wunderground v.1.15,2013-01-18 04:06:00,
2013-01-17 23:11:00,16.6,13.7,30.19,NE,46,2.0,2.0,88,0.00,,,0.00,Wunderground v.1.15,2013-01-18 04:11:00,
2013-01-17 23:17:00,16.4,13.5,30.19,NNE,23,1.0,2.0,88,0.00,,,0.00,Wunderground v.1.15,2013-01-18 04:17:00,
2013-01-17 23:22:00,16.2,13.3,30.19,NE,34,1.0,3.0,88,0.00,,,0.00,Wunderground v.1.15,2013-01-18 04:22:00,
2013-01-17 23:29:00,15.9,12.7,30.19,NNE,17,1.0,3.0,87,0.00,,,0.00,Wunderground v.1.15,2013-01-18 04:29:00,
2013-01-17 23:34:00,15.7,12.5,30.19,NNE,33,1.0,3.0,87,0.00,,,0.00,Wunderground v.1.15,2013-01-18 04:34:00,
2013-01-17 23:39:00,15.5,12.1,30.18,NNE,27,2.0,5.0,86,0.00,,,0.00,Wunderground v.1.15,2013-01-18 04:39:00,
2013-01-17 23:45:00,15.3,11.9,30.19,NNE,30,2.0,3.0,86,0.00,,,0.00,Wunderground v.1.15,2013-01-18 04:45:00,
2013-01-17 23:51:00,15.2,11.8,30.20,NNE,18,1.0,1.0,86,0.00,,,0.00,Wunderground v.1.15,2013-01-18 04:51:00,
2013-01-17 23:57:00,15.2,12.0,30.20,NNE,29,0.0,1.0,87,0.00,,,0.00,Wunderground v.1.15,2013-01-18 04:57:00,